Flag for Germany Weather past 2 weeks in Bühl, Baden-Württemberg, Germany

Now
50 °F

Passing clouds.


Feels Like: 48 °F
Forecast: 29 / 51 °F
Wind: 5 mph from West

Location: Karlsruhe - Baden Wurttemberg

Current Time: Mar 6, 2015 at 3:13:37 PM

Latest Report: Mar 6, 2015 at 2:20 PM


Visibility: N/A

Pressure: 30.60 "Hg

Humidity: 43%

Dew point: 28 °F

Location of BühlLocation

Historic Weather in Bühl — Graph

°F

Bühl temperature yesterday

Maximum temperature yesterday: 46 °F (at 1:20 PM)
Minimum temperature yesterday: 32 °F (at 11:50 PM)
Average temperature yesterday: 41 °F

Past Weeks' High & Low Weather Summary

 TemperatureHumidityPressure
High57 °F (Feb 20, 1:50 PM)100% (Feb 20, 5:20 AM)30.69 "Hg (Feb 20, 5:20 AM)
Low23 °F (Feb 20, 5:20 AM)31% (Feb 20, 3:50 PM)29.50 "Hg (Feb 21, 6:20 AM)
Average41 °F72%30.02 "Hg
* Reported Feb 19 1:20 PM — Mar 6 1:50 PM, Bühl, Weather by CustomWeather, © 2015

Note: Actual official high and low records may vary slightly from our data, if they occured in-between our weather recording intervals... More about our weather records

Advertising

Bühl weather history for previous 24 hours

 ConditionsComfort  
Time TempWeatherWind HumidityBarometerVisibility
1:50 PM
Fri, Mar 6
48 °FSunny.3 mph46%30.63 "Hg10 mi
1:20 PM48 °FSunny.3 mph46%30.63 "Hg10 mi
12:50 PM48 °FPassing clouds.5 mph50%30.63 "HgN/A
12:20 PM46 °FSunny.2 mph53%30.66 "Hg10 mi
11:50 AM45 °FPassing clouds.5 mph57%30.66 "HgN/A
11:20 AM45 °FSunny.3 mph57%30.66 "Hg10 mi
10:50 AM43 °FPassing clouds.6 mph61%30.66 "HgN/A
10:20 AM39 °FSunny.3 mph70%30.66 "Hg10 mi
9:50 AM37 °FSunny.3 mph75%30.69 "Hg10 mi
9:20 AM36 °FSunny.2 mph81%30.69 "Hg10 mi
8:50 AM34 °FSunny.3 mph81%30.69 "Hg10 mi
8:20 AM30 °FSunny.2 mph93%30.66 "Hg10 mi
7:50 AM28 °FSunny.2 mph93%30.66 "Hg10 mi
7:20 AM27 °FSunny.2 mph93%30.66 "Hg10 mi
6:50 AM27 °FClear.No wind93%30.66 "Hg10 mi
6:20 AM28 °FClear.1 mph86%30.66 "Hg10 mi
5:50 AM28 °FClear.2 mph86%30.66 "Hg10 mi
5:20 AM28 °FClear.2 mph86%30.66 "Hg10 mi
4:50 AM28 °FClear.1 mph93%30.66 "Hg10 mi
4:20 AM28 °FClear.2 mph93%30.63 "Hg10 mi
2:20 AM30 °FClear.2 mph86%30.63 "Hg10 mi
11:50 PM
Thu, Mar 5
32 °FClear.2 mph80%30.66 "Hg10 mi
11:20 PM34 °FClear.2 mph75%30.66 "Hg10 mi
10:50 PM36 °FClear.2 mph75%30.66 "Hg10 mi
10:20 PM37 °FClear.2 mph70%30.66 "Hg10 mi
9:20 PM37 °FClear.1 mph65%30.63 "Hg10 mi
8:50 PM37 °FClear.No wind65%30.63 "Hg10 mi
8:20 PM39 °FClear.2 mph61%30.63 "Hg10 mi
7:50 PM39 °FClear.1 mph61%30.63 "Hg10 mi
7:20 PM43 °FClear.2 mph53%30.63 "Hg10 mi
6:50 PM41 °FClear.5 mph57%30.63 "Hg10 mi
6:20 PM43 °FClear.6 mph53%30.60 "Hg10 mi
5:50 PM45 °FPassing clouds.6 mph49%30.60 "HgN/A
5:20 PM45 °FPassing clouds.6 mph46%30.60 "HgN/A
4:50 PM46 °FPassing clouds.3 mph43%30.60 "HgN/A
4:20 PM46 °FPassing clouds.5 mph43%30.60 "HgN/A
3:50 PM46 °FPassing clouds.6 mph43%30.60 "HgN/A
3:20 PM46 °FPassing clouds.8 mph43%30.60 "HgN/A
Weather by CustomWeather, © 2015

See weather overviewHow to use our weather pages